User: anonymous   Login
Location: Mentone
(34.5413°N, 85.5351°W)
Time: 11:40:02
(UTC-05:00)
Language:

Cosmos 1703 - Orbit

View from above orbital plane
View from above orbital plane
View from above satellite
View from above satellite

Ground track
Ground track

The orbit data is extracted from the following two-line orbital elements,

1 16262U 85108A   16238.36612072  .00000405  00000-0  23123-4 0  9990
2 16262  82.4859 180.3795 0009470 209.5886 150.4809 15.09900357674256
Epoch (UTC): 25 August 2016 08:47:12
Eccentricity: 0.0009470
inclination: 82.4859°
perigee height: 530 km
apogee height: 543 km
right ascension of ascending node: 180.3795°
argument of perigee: 209.5886°
revolutions per day: 15.09900357
mean anomaly at epoch: 150.4809°
orbit number at epoch: 67425

The dashed part of the orbit path shows where the satellite is in the earth's shadow,  

DLR